{"data":{"norad_id":49080,"intl_designator":"2021-075F","name":"ONEWEB-0290","alt_names":[],"object_type":"PAYLOAD","status":"ACTIVE","operator":null,"country":"UK","launch_date":"2021-08-21","launch_site_code":"TYMSC","launch_vehicle":null,"mission":null,"orbit_class":"UNKNOWN","rcs_meters":null,"size_class":null,"mass_kg":null,"dimensions":null,"purposes":["comms"],"wikipedia_slug":null,"has_3d_model":false,"image_url":null,"decayed_at":null,"tle_current":{"epoch":"2026-05-25T02:15:10.450944Z","epoch_age_seconds":81088,"freshness":"FRESH","line1":"1 49080U 21075F   26145.09387096  .00000003  00000+0 -26016-4 0  9998","line2":"2 49080  87.9163  10.4455 0001297  89.5326 270.5954 13.17649512230576","mean_motion":13.17649512,"eccentricity":0.0001297,"inclination_deg":87.9163,"raan_deg":10.4455,"arg_perigee_deg":89.5326,"mean_anomaly_deg":270.5954,"bstar":-2.6016e-5,"rev_number":23057,"period_min":109.28551081951,"perigee_km":1192.7292296731,"apogee_km":1194.6933671217,"semimajor_km":7571.8482983974,"source":"CELESTRAK","updated_at":"2026-05-25T13:38:22.481552Z"}}}